Torna al catalogo

FENGYUN 1C DEB

AttivoPO
NORAD 31966·DEBRIS·🇨🇳 China

Lanciato May 10, 1999 da Taiyuan Satellite Launch Center

Loading…

Prossimi Passaggi (prossime 24 ore)

TLE

In scadenzaSource: Space-Track

Epoca: Sep 9, 2026, 18:29 UTC

1 31966U 99025CNT 26252.77061359  .00004081  00000-0  64444-3 0  9993
2 31966  99.0367  78.8392 0082036 156.1202 204.3841 14.70776718697231

Traccia FENGYUN 1C DEB in tempo reale con AllMySat

Download on the App Store